Temp
10 11 12 13 13 15 17 17 18 18 18 18 18 18 18 17 16 15 14 13 12 12 11 10 12 12 11 11 12 12 11 11 11 11 11 11 11 11 10 10 10 10 10 10
10 11 12 13 14 14 15 17 18 18 18 18 18 18 18 18 17 16 15 14 13 12 11 11 12 11 12 12 12 12 12 12 11 11 11 11 11 11 10 10 10 10 10 10
12 13 12 13 14 14 15 16 17 18 18 18 18 18 18 18 17 16 16 15 14 13 12 13 13 13 12 13 13 12 12 12 12 12 11 11 11 11 11 11 11 11 11 11
13 14 13 13 14 14 15 16 16 17 18 19 18 19 18 18 18 16 16 15 15 14 13 12 14 13 13 13 13 13 13 13 12 12 12 12 12 12 11 11 11 11 11 11
13 14 14 14 14 15 15 16 16 16 17 18 18 19 20 19 19 18 17 16 16 15 14 13 15 14 14 13 13 13 13 13 13 13 12 12 12 12 11 11 11 11 11 11
14 14 14 14 14 15 15 15 16 16 16 18 17 18 19 20 20 19 18 17 17 16 14 13 14 14 14 13 13 13 13 13 13 13 13 13 12 12 12 12 12 12 12 12
13 14 14 14 15 15 14 15 16 17 18 18 18 18 19 19 19 19 19 18 17 16 15 14 13 14 15 14 14 14 14 13 13 13 13 13 13 12 12 12 12 12 11 12
14 14 14 14 15 15 14 15 17 17 19 19 18 19 19 19 19 19 19 19 18 17 16 15 13 14 15 15 14 14 14 14 14 14 14 13 13 13 13 12 12 12 12 12
15 15 16 15 14 15 15 15 16 18 19 21 20 19 19 19 19 19 19 19 19 18 16 15 14 15 16 15 15 15 15 14 14 14 14 14 13 13 13 13 13 13 12 12
14 16 15 15 14 14 16 15 16 17 19 20 22 21 20 19 19 19 18 18 18 18 17 16 15 14 16 16 15 15 15 15 15 15 14 14 14 13 13 13 13 13 13 12
13 15 16 16 15 15 15 16 16 17 18 21 21 21 20 20 19 18 18 18 18 18 17 16 16 15 16 16 16 16 15 15 15 15 15 14 14 14 13 13 13 13 13 13
12 14 14 16 15 15 15 16 16 16 18 19 21 22 20 20 19 18 18 18 18 18 18 17 16 15 15 16 17 17 16 16 16 15 15 15 14 14 14 14 13 13 13 13
10 11 14 15 16 15 15 16 16 16 17 18 20 20 18 18 18 18 18 18 18 18 18 18 17 16 16 15 17 17 17 17 16 16 16 15 15 15 14 14 14 13 13 13
6 9 12 17 17 16 15 16 16 17 17 18 18 19 17 17 17 17 17 18 18 17 17 17 17 17 16 15 16 18 17 17 17 16 16 16 16 16 16 15 14 14 14 14
6 8 11 13 16 16 16 15 16 16 17 18 19 18 18 17 16 16 16 16 16 16 16 16 16 16 16 15 17 18 18 18 17 17 17 17 17 17 16 16 15 14 14 14
5 7 9 12 13 12 13 15 16 16 16 17 17 19 18 17 16 16 16 15 15 15 15 16 15 15 17 18 18 18 18 18 18 18 17 17 17 17 17 17 16 15 15 14
2 6 8 10 11 11 11 13 15 16 16 16 17 17 18 17 16 15 15 14 14 15 15 15 15 15 17 17 17 17 18 18 18 18 18 17 17 17 17 17 17 16 16 15
2 3 6 8 9 11 12 13 13 14 15 16 16 16 16 16 15 14 14 14 14 14 16 15 15 16 16 16 16 17 17 18 18 18 19 18 18 17 17 17 17 17 16 16
1 2 5 7 10 12 12 12 13 12 13 13 13 13 13 13 13 13 13 13 14 15 14 14 15 16 16 16 16 16 17 18 18 18 19 19 18 18 17 17 17 17 16 16
2 2 3 6 9 12 12 11 11 11 12 12 12 13 13 13 13 13 13 13 13 13 14 14 14 14 15 15 16 16 17 17 18 18 18 19 18 18 18 17 17 17 17 17
2 2 3 4 6 9 9 9 10 10 10 11 11 11 11 11 11 12 13 13 13 15 15 15 15 15 16 16 17 17 17 17 18 18 18 19 19 19 18 18 17 17 17 17
2 3 3 4 5 6 8 8 8 8 7 7 7 7 7 7 7 11 13 13 13 14 15 15 16 16 16 16 17 17 17 17 17 18 18 18 18 18 18 18 18 17 17 17
1 2 4 4 5 5 5 5 6 6 6 4 4 4 5 5 6 10 12 13 13 13 14 15 15 16 16 16 17 17 17 17 17 17 18 18 18 18 18 18 18 17 17 17
1 1 1 1 2 2 3 3 3 3 3 3 3 3 6 8 8 10 11 12 13 14 14 14 15 15 16 16 17 17 17 17 17 17 17 18 18 18 18 18 18 18 18 18
-1 -1 0 1 1 1 1 1 1 1 3 3 6 7 8 9 10 11 12 12 13 14 14 14 15 15 16 16 16 17 17 17 17 17 17 18 18 17 17 17 17 17 17 17
-3 -3 -2 -0 0 0 1 1 1 1 2 6 7 7 8 9 11 11 12 13 13 13 12 14 15 15 15 16 16 17 17 17 17 17 17 17 17 17 17 17 17 17 17 17
Height
3115 3119 3111 3119 3127 3133 3134 3135 3135 3136 3141 3145 3147 3148 3151 3152 3156 3159 3161 3163 3165 3167 3170 3172 3174 3177 3179 3182 3185 3189 3192 3196 3199 3202 3205 3208 3210 3213 3215 3216 3217 3218 3219 3221
3112 3102 3113 3121 3125 3129 3130 3129 3131 3134 3137 3142 3142 3144 3145 3147 3151 3155 3157 3160 3162 3166 3168 3169 3170 3173 3176 3179 3182 3186 3189 3193 3197 3200 3203 3206 3208 3211 3212 3214 3215 3216 3218 3219
3096 3099 3109 3114 3117 3121 3124 3125 3127 3130 3134 3137 3141 3140 3141 3144 3146 3151 3154 3157 3159 3160 3162 3163 3166 3169 3172 3174 3178 3182 3186 3190 3194 3197 3200 3203 3206 3208 3210 3212 3213 3214 3216 3218
3095 3100 3101 3106 3109 3114 3115 3122 3127 3129 3129 3128 3134 3133 3135 3138 3141 3146 3149 3152 3155 3157 3160 3160 3162 3165 3168 3171 3175 3178 3183 3187 3191 3194 3197 3200 3204 3207 3209 3210 3212 3213 3214 3215
3082 3090 3095 3097 3099 3108 3110 3119 3123 3127 3127 3128 3124 3126 3123 3127 3132 3137 3143 3146 3150 3153 3155 3157 3158 3161 3165 3167 3170 3174 3178 3182 3186 3191 3194 3198 3200 3204 3206 3208 3210 3211 3213 3214
3082 3087 3090 3091 3098 3103 3110 3115 3118 3121 3124 3117 3119 3121 3117 3118 3123 3129 3135 3141 3145 3148 3150 3153 3155 3158 3161 3164 3166 3169 3174 3179 3182 3186 3190 3194 3197 3200 3203 3205 3207 3209 3210 3211
3074 3075 3081 3086 3092 3097 3103 3108 3109 3109 3104 3099 3112 3114 3111 3115 3120 3124 3129 3134 3139 3143 3146 3150 3152 3154 3157 3160 3163 3166 3170 3174 3178 3182 3186 3190 3194 3197 3200 3202 3204 3205 3207 3208
3063 3067 3069 3074 3078 3086 3091 3095 3091 3090 3091 3097 3105 3093 3100 3111 3114 3117 3122 3128 3133 3137 3141 3145 3148 3149 3153 3157 3160 3163 3166 3170 3174 3178 3183 3187 3190 3193 3196 3199 3201 3203 3204 3206
3052 3054 3059 3066 3074 3080 3083 3082 3089 3088 3085 3084 3085 3092 3099 3102 3107 3113 3116 3122 3126 3130 3136 3139 3143 3144 3148 3153 3156 3159 3162 3166 3170 3174 3178 3182 3186 3188 3191 3195 3197 3199 3202 3203
3044 3050 3053 3059 3069 3071 3071 3082 3087 3083 3077 3073 3075 3078 3084 3092 3098 3104 3110 3115 3120 3126 3129 3134 3138 3141 3143 3147 3151 3156 3159 3162 3166 3170 3173 3177 3181 3184 3187 3190 3192 3195 3197 3200
3042 3042 3044 3051 3048 3055 3065 3069 3075 3081 3077 3072 3074 3074 3079 3083 3091 3097 3102 3109 3115 3120 3124 3130 3133 3137 3139 3142 3146 3149 3154 3158 3161 3165 3169 3172 3175 3179 3182 3184 3187 3190 3193 3195
3031 3037 3038 3034 3046 3055 3059 3062 3067 3068 3071 3073 3070 3071 3073 3076 3085 3090 3097 3103 3109 3115 3121 3126 3130 3134 3137 3137 3140 3143 3147 3151 3155 3160 3164 3167 3171 3173 3176 3178 3181 3185 3187 3190
3028 3029 3032 3032 3040 3045 3046 3053 3059 3066 3069 3068 3072 3073 3076 3078 3082 3088 3094 3100 3106 3112 3117 3122 3127 3129 3131 3134 3136 3139 3142 3146 3149 3154 3158 3162 3165 3167 3170 3173 3176 3179 3182 3184
3018 3023 3022 3016 3018 3035 3042 3044 3052 3056 3061 3062 3066 3072 3077 3080 3082 3085 3091 3097 3102 3105 3109 3115 3121 3126 3129 3131 3132 3136 3138 3141 3144 3147 3151 3154 3158 3162 3166 3169 3172 3175 3176 3178
3025 3023 3023 3020 3024 3029 3032 3038 3043 3046 3055 3057 3063 3070 3074 3078 3083 3086 3090 3095 3099 3102 3105 3109 3114 3118 3122 3125 3128 3131 3134 3136 3139 3141 3145 3148 3153 3156 3160 3164 3167 3170 3171 3173
3022 3023 3024 3020 3021 3026 3028 3029 3036 3043 3050 3057 3062 3065 3072 3076 3082 3086 3090 3094 3096 3099 3104 3108 3110 3111 3113 3118 3122 3125 3128 3131 3134 3136 3139 3143 3147 3150 3153 3157 3160 3163 3165 3167
3022 3023 3022 3018 3022 3027 3027 3026 3031 3039 3045 3052 3056 3064 3069 3073 3078 3082 3086 3089 3093 3097 3100 3102 3104 3106 3108 3112 3115 3119 3123 3125 3128 3131 3133 3136 3140 3143 3146 3150 3153 3156 3158 3161
3025 3024 3023 3021 3025 3021 3018 3027 3033 3037 3040 3047 3054 3060 3065 3069 3072 3077 3081 3084 3087 3089 3093 3096 3099 3102 3104 3108 3113 3113 3115 3119 3123 3125 3127 3129 3131 3135 3139 3142 3145 3148 3151 3154
3024 3025 3023 3021 3015 3016 3017 3024 3029 3033 3039 3044 3050 3055 3059 3064 3068 3071 3074 3077 3079 3082 3086 3088 3091 3097 3101 3104 3105 3105 3107 3110 3114 3118 3121 3123 3124 3127 3130 3134 3138 3141 3144 3146
3020 3023 3025 3021 3015 3009 3018 3019 3024 3030 3034 3040 3046 3052 3057 3061 3064 3069 3072 3071 3070 3072 3074 3077 3083 3085 3089 3091 3095 3098 3101 3104 3106 3112 3114 3116 3117 3118 3122 3127 3131 3134 3136 3139
3015 3019 3020 3022 3018 3015 3016 3019 3026 3033 3040 3038 3042 3047 3051 3054 3057 3054 3057 3059 3061 3064 3066 3069 3072 3075 3079 3084 3087 3090 3094 3096 3101 3102 3105 3107 3109 3111 3114 3117 3122 3126 3128 3130
3010 3013 3015 3019 3018 3017 3017 3021 3027 3027 3028 3027 3029 3034 3038 3042 3043 3048 3049 3052 3053 3055 3058 3062 3066 3070 3073 3075 3079 3083 3086 3090 3091 3093 3096 3099 3101 3103 3106 3110 3114 3117 3120 3122
3009 3008 3009 3012 3012 3016 3016 3017 3021 3023 3022 3024 3026 3029 3033 3035 3038 3040 3041 3044 3047 3049 3052 3055 3059 3063 3066 3068 3071 3075 3079 3080 3083 3085 3088 3091 3093 3095 3098 3102 3106 3109 3111 3113
3005 3006 3004 3006 3004 3006 3008 3010 3012 3013 3014 3017 3019 3020 3025 3027 3029 3033 3036 3038 3041 3044 3046 3048 3051 3056 3058 3060 3063 3067 3070 3073 3075 3077 3080 3083 3085 3087 3090 3094 3097 3100 3102 3104
3002 3000 2999 2996 2998 3001 3000 3002 3005 3006 3006 3008 3012 3015 3018 3021 3023 3026 3029 3032 3035 3038 3040 3042 3045 3048 3051 3054 3055 3058 3063 3066 3069 3070 3073 3075 3077 3080 3083 3086 3088 3090 3092 3093
2996 2994 2990 2986 2993 2993 2994 2998 2999 2999 3001 3004 3008 3010 3013 3015 3019 3021 3023 3026 3029 3032 3034 3036 3039 3041 3044 3047 3048 3051 3055 3058 3061 3064 3066 3068 3071 3073 3075 3077 3078 3081 3083 3084
Wind_Speed
33 35 46 42 40 32 26 28 26 29 19 22 25 22 19 14 17 22 24 25 25 24 20 24 25 27 28 30 30 29 28 26 24 23 20 18 15 14 13 11 10 9 8 9
31 45 36 32 34 34 33 30 31 28 23 20 20 22 19 17 18 22 24 25 25 24 25 25 23 28 29 29 30 31 29 28 26 24 21 19 17 15 14 13 12 10 11 9
40 24 33 34 36 38 38 36 29 29 25 23 22 22 22 18 18 22 24 22 24 27 28 24 20 24 30 31 30 31 30 28 27 26 24 21 19 18 16 15 13 11 10 9
36 29 27 37 38 38 40 37 31 26 29 30 28 26 29 24 22 23 26 25 26 27 27 26 20 19 26 28 28 30 30 29 28 27 25 22 18 17 15 15 14 13 12 11
43 33 31 38 39 36 38 30 34 31 29 29 30 29 27 31 32 28 25 25 26 27 28 30 18 18 19 26 28 29 31 31 29 26 25 22 21 18 17 17 17 16 14 14
36 28 33 28 32 30 29 27 28 31 33 30 37 34 32 28 27 29 27 27 25 27 29 30 24 17 19 26 27 31 30 29 28 27 27 25 23 21 20 18 16 15 15 13
37 41 31 30 29 32 30 30 21 22 25 21 38 40 38 29 29 27 28 28 27 25 30 30 31 24 19 25 24 27 29 30 30 27 27 25 25 24 21 19 18 18 17 14
39 37 46 32 40 35 38 39 27 23 19 19 36 43 45 34 19 28 28 30 27 24 28 30 33 29 21 19 21 26 26 28 28 26 25 24 25 25 23 22 21 19 17 15
41 45 26 47 35 39 37 45 41 32 31 23 35 39 33 29 36 28 23 31 27 26 28 31 33 28 24 25 20 19 18 25 27 26 26 25 24 26 25 22 21 20 19 18
39 29 41 27 34 39 40 34 38 35 23 19 24 23 34 32 27 37 35 28 31 29 28 30 31 32 26 25 25 20 18 16 15 19 22 25 26 26 25 25 25 24 21 20
46 35 22 38 50 44 45 37 42 34 32 15 12 17 24 28 26 30 35 36 31 29 28 30 30 31 27 25 28 27 25 23 24 22 20 23 26 28 30 29 27 27 25 24
50 30 35 44 39 35 38 41 40 33 33 33 22 5 1 24 22 21 29 27 31 28 29 28 28 27 29 28 29 29 29 29 26 26 23 22 21 22 24 31 31 30 28 27
23 35 31 31 36 39 45 43 38 39 31 32 23 11 6 9 10 22 24 24 26 27 28 28 28 28 27 30 25 25 29 30 31 30 27 24 25 24 24 22 24 30 33 32
23 29 38 28 40 40 41 44 43 38 40 29 33 22 11 7 15 17 20 21 22 26 23 28 27 26 27 28 25 17 25 29 34 34 32 29 26 25 24 24 22 20 23 25
12 23 32 36 22 25 41 44 44 45 38 40 24 26 17 14 14 15 17 16 15 14 18 23 32 26 30 30 27 22 20 21 29 32 33 32 29 28 27 26 24 25 25 24
8 19 26 30 33 16 18 30 43 44 41 35 33 22 24 14 16 14 13 11 12 13 15 14 13 21 28 32 27 24 22 23 23 29 35 35 33 34 32 30 28 28 29 29
5 12 20 25 30 18 26 30 29 40 39 37 37 31 22 18 17 17 16 14 12 12 12 14 16 17 26 30 29 26 23 24 23 22 28 37 38 37 36 34 33 32 31 34
10 8 10 18 24 23 25 26 26 25 27 32 30 24 29 25 19 19 16 16 15 14 20 18 15 18 24 26 20 29 32 32 28 25 24 28 42 42 42 40 39 36 36 36
17 13 10 16 22 16 29 21 22 28 32 26 26 24 19 19 17 19 18 18 18 19 16 17 20 19 20 20 23 29 33 38 34 29 28 28 34 45 45 44 41 39 37 37
20 18 18 12 18 17 12 9 13 11 18 25 30 24 20 20 21 17 16 19 21 19 23 20 18 22 28 34 31 31 33 36 39 36 33 32 31 40 46 45 43 41 41 41
20 24 24 23 16 20 3 6 15 17 5 18 15 18 19 19 19 24 24 28 29 27 29 29 30 32 37 38 33 34 33 36 34 34 36 36 35 33 39 46 45 43 43 43
16 24 27 25 28 24 16 8 15 13 17 12 14 13 10 10 11 24 30 33 36 36 30 28 29 25 24 33 37 33 32 31 33 35 36 33 33 33 34 37 41 42 43 43
21 17 20 26 29 22 19 22 20 13 20 8 6 7 9 10 11 21 28 24 24 34 33 31 31 31 25 27 35 34 29 29 31 33 34 34 32 30 36 38 38 37 36 33
20 20 27 27 30 25 23 23 21 23 21 20 18 17 16 17 17 25 28 26 23 20 25 33 34 32 30 26 33 36 32 29 30 28 31 30 32 30 36 37 36 35 33 32
22 22 26 35 37 33 32 30 28 27 36 33 32 29 28 23 21 21 22 22 21 22 18 30 34 32 33 27 29 35 31 27 27 23 28 30 30 29 32 31 32 33 31 30
25 31 36 39 29 30 32 29 28 33 38 48 43 33 35 36 32 23 21 21 22 23 21 20 27 30 31 32 26 34 32 30 29 27 24 23 24 26 27 26 27 27 27 27
Wind_Direction
197 201 210 208 212 216 219 215 224 210 206 204 214 212 219 212 211 202 202 200 200 202 202 202 207 206 205 210 207 207 207 207 206 209 208 209 216 224 229 233 236 235 228 227
201 217 214 212 214 217 221 227 221 221 214 213 216 228 224 221 209 203 203 201 202 198 202 201 212 210 213 214 210 208 208 209 209 213 213 214 219 226 230 232 231 228 227 229
206 224 211 212 211 215 219 221 222 224 218 221 224 234 226 221 211 207 208 206 203 201 201 220 221 220 215 216 214 213 210 211 212 215 216 216 218 221 222 227 231 228 228 229
214 214 212 208 215 213 221 218 222 223 227 223 222 234 219 223 214 209 207 209 208 205 204 214 231 226 222 218 215 215 213 214 215 217 218 218 219 225 228 232 236 237 228 233
215 209 211 212 213 212 222 220 223 227 236 240 237 228 238 212 215 210 209 211 211 211 206 207 228 231 226 221 217 214 212 212 215 219 222 219 217 219 223 226 231 231 233 240
218 218 213 217 212 213 215 219 223 224 229 236 230 231 233 229 219 208 213 213 213 208 206 206 213 220 223 222 219 217 213 215 215 216 218 219 219 219 223 226 233 237 241 236
216 217 220 214 212 211 207 206 209 222 218 231 228 232 232 228 223 221 217 214 211 210 209 205 204 206 213 216 217 214 211 214 216 219 220 221 219 219 222 227 228 236 242 241
211 216 214 211 211 204 206 206 213 213 217 226 228 229 231 229 230 224 221 214 211 212 206 209 206 210 214 217 218 218 217 218 219 222 224 225 223 222 227 231 237 241 247 245
210 223 221 213 209 205 205 215 214 230 222 238 220 228 237 228 225 219 212 208 208 210 209 203 206 210 218 219 216 219 216 218 223 225 227 227 226 224 230 236 241 248 247 248
227 224 220 210 210 216 214 216 213 230 245 230 232 229 216 217 220 217 216 209 208 210 209 203 204 209 220 218 220 218 213 203 211 223 227 229 229 230 233 236 242 246 249 247
221 231 237 210 206 206 206 215 214 222 228 242 234 230 231 215 217 218 212 212 207 207 209 203 204 209 217 217 214 218 220 219 218 220 221 229 233 235 235 238 240 245 247 247
212 232 231 212 212 210 212 209 208 220 221 233 251 212 190 210 217 209 207 206 204 206 206 204 208 206 212 219 218 217 219 222 225 226 225 225 226 229 234 239 242 242 245 248
194 213 220 233 203 211 213 210 214 215 225 216 227 216 142 169 193 199 194 197 196 200 202 205 210 210 212 214 219 223 224 223 223 222 225 226 229 231 235 237 239 242 245 249
200 211 217 215 201 201 209 212 212 214 218 221 213 217 157 127 158 174 182 189 190 200 198 201 205 210 217 214 225 234 233 225 225 224 224 226 227 231 236 240 237 239 238 241
211 222 220 231 222 209 213 213 213 214 216 219 211 209 178 167 145 139 152 162 174 191 201 210 214 217 208 220 241 250 237 237 231 231 230 234 232 229 233 238 239 239 244 244
229 236 225 237 230 229 237 223 217 216 217 220 223 214 206 176 178 181 189 206 206 196 188 194 201 210 218 231 231 226 227 234 236 237 235 234 236 233 231 236 240 242 246 249
273 223 225 232 224 232 239 218 219 218 216 218 219 218 208 202 209 224 224 225 208 214 223 231 234 224 210 205 209 217 223 224 235 241 241 236 236 239 237 237 241 244 248 252
249 253 234 229 223 228 232 219 217 222 222 217 221 220 224 232 232 233 235 228 234 241 232 239 236 233 214 215 225 233 229 230 233 243 254 249 234 238 236 238 241 244 245 248
229 232 243 235 228 215 226 219 214 218 224 217 221 224 225 224 230 232 237 240 243 258 251 253 230 225 227 219 231 223 231 236 236 241 252 260 240 236 240 238 242 245 245 250
225 229 234 233 242 227 193 150 185 204 221 217 225 222 227 224 229 239 240 238 237 233 229 226 227 228 222 225 228 235 233 240 248 252 245 250 252 241 241 239 239 243 246 249
210 224 226 231 243 230 126 199 198 191 161 190 204 202 212 213 217 222 219 227 233 237 229 227 227 225 225 228 235 234 236 244 251 245 240 243 250 255 242 237 236 240 244 247
215 212 224 226 235 240 215 226 190 206 187 162 161 180 193 227 258 215 229 235 237 241 236 228 225 225 224 226 229 233 241 247 243 242 241 246 245 251 249 239 236 238 243 249
249 235 233 227 230 232 230 238 225 259 232 248 265 269 256 263 265 228 231 227 229 239 241 228 226 229 230 229 227 233 241 244 248 251 246 248 247 247 243 236 235 239 246 257
247 247 252 254 243 247 245 244 242 245 259 256 267 258 218 220 223 222 231 237 243 247 246 238 231 231 233 234 227 228 234 240 247 251 245 251 248 248 237 232 236 242 251 264
257 261 253 254 250 251 251 251 251 259 246 248 234 234 226 229 227 220 224 242 252 254 256 234 237 239 237 237 240 226 229 234 240 240 240 245 245 243 237 238 245 250 254 258
265 254 251 252 249 250 252 249 253 256 244 230 230 227 230 224 217 227 236 241 256 255 259 247 240 243 235 238 242 227 227 231 234 241 241 240 240 239 239 242 246 248 250 252